Flag for Norway Weather past 2 weeks in Grimstad, Norway

Now
40 °F

Quite cool.


Feels Like: 31 °F
Forecast: 38 / 44 °F
Wind: 18 mph from Southwest

Location: Torungen Fyr

Current Time: Feb 28, 2015 at 8:28:54 PM

Latest Report: Feb 28, 2015 at 7:00 PM


Visibility: N/A

Pressure: 29.59 "Hg

Humidity: 97%

Dew point: 39 °F

Location of GrimstadLocation

Historic Weather in Grimstad — Graph

°F

Grimstad temperature yesterday

Maximum temperature yesterday: 42 °F (at 1:00 PM)
Minimum temperature yesterday: 36 °F (at 11:00 PM)
Average temperature yesterday: 39 °F

Past Weeks' High & Low Weather Summary

 TemperatureHumidityPressure
High47 °F (Feb 18, 3:00 PM)98% (Feb 19, 8:00 AM)30.44 "Hg (Feb 19, 8:00 AM)
Low32 °F (Feb 22, 2:00 AM)59% (Feb 22, 3:00 PM)28.91 "Hg (Feb 23, 10:00 AM)
Average39 °F88%29.77 "Hg
* Reported Feb 13 7:00 PM — Feb 28 7:00 PM, Grimstad, Weather by CustomWeather, © 2015

Note: Actual official high and low records may vary slightly from our data, if they occured in-between our weather recording intervals... More about our weather records

Advertising

Grimstad weather history for previous 24 hours

 ConditionsComfort  
Time TempWeatherWind HumidityBarometerVisibility
7:00 PM
Sat, Feb 28
40 °FQuite cool.18 mph97%29.59 "HgN/A
6:00 PM40 °FQuite cool.17 mph96%29.61 "HgN/A
5:00 PM40 °FQuite cool.17 mph96%29.63 "HgN/A
4:00 PM40 °FChilly.16 mph95%29.66 "HgN/A
3:00 PM40 °FChilly.17 mph93%29.68 "HgN/A
2:00 PM40 °FChilly.17 mph93%29.70 "HgN/A
1:00 PM40 °FChilly.16 mph92%29.74 "HgN/A
12:00 PM40 °FChilly.16 mph90%29.77 "HgN/A
11:00 AM40 °FChilly.15 mph92%29.77 "HgN/A
10:00 AM40 °FChilly.13 mph91%29.79 "HgN/A
9:00 AM39 °FChilly.10 mph89%29.81 "HgN/A
8:00 AM39 °FChilly.10 mph91%29.82 "HgN/A
7:00 AM39 °FChilly.9 mph92%29.83 "HgN/A
6:00 AM39 °FChilly.9 mph93%29.85 "HgN/A
5:00 AM39 °FChilly.9 mph90%29.85 "HgN/A
4:00 AM38 °FChilly.5 mph93%29.87 "HgN/A
3:00 AM36 °FChilly.3 mph92%29.90 "HgN/A
2:00 AM35 °FChilly.2 mph90%29.91 "HgN/A
1:00 AM34 °FChilly.2 mph91%29.92 "HgN/A
12:00 AM34 °FChilly.2 mph87%29.91 "HgN/A
11:00 PM
Fri, Feb 27
36 °FChilly.2 mph86%29.92 "HgN/A
9:00 PM38 °FChilly.5 mph85%29.92 "HgN/A
8:00 PM37 °FChilly.5 mph85%29.92 "HgN/A
Weather by CustomWeather, © 2015

See weather overviewHow to use our weather pages